Home > Weather > Kopervik > Past weeks

Flag for Norway Past Weather in Kopervik, Norway — Yesterday and Last 2 Weeks

Now
59 °F

Light rain. Passing clouds.


Feels Like: 56 °F
Forecast: 55 / 60 °F
Wind: 15 mph from Southwest

Location: Karmoy

Current Time: Jul 29, 2016 at 12:22:50 AM

Latest Report: Jul 28, 2016 at 11:50 PM


Visibility: N/A

Pressure: 29.80 "Hg

Humidity: 82%

Dew Point: 54 °F

Location of KopervikLocation

Past Weather in Kopervik — Graph

°F

Kopervik Temperature Yesterday

Maximum temperature yesterday: 63 °F (at 3:20 PM)
Minimum temperature yesterday: 57 °F (at 12:20 AM)
Average temperature yesterday: 60 °F

High & Low Weather Summary for the Past Weeks

 TemperatureHumidityPressure
High75 °F (Jul 20, 1:50 PM)100% (Jul 16, 4:20 AM)30.12 "Hg (Jul 16, 4:20 AM)
Low52 °F (Jul 17, 12:20 AM)56% (Jul 24, 11:50 AM)29.68 "Hg (Jul 27, 8:50 PM)
Average60 °F84%29.96 "Hg
* Reported Jul 13 10:20 PM — Jul 28 10:50 PM, Kopervik, Weather by CustomWeather, © 2016

Note: Actual official high and low records may vary slightly from our data, if they occured in-between our weather recording intervals... More about our weather records

Advertising

Kopervik Weather History for the Previous 24 Hours

Scroll right to see more
 ConditionsComfort  
Time TempWeatherWind HumidityBarometerVisibility
10:50 PM
Thu, Jul 28
59 °FLight rain. Broken clouds.17 mph88%29.80 "Hg6 mi
10:20 PM59 °FScattered showers. Broken clouds.16 mph94%29.80 "HgN/A
9:50 PM61 °FBroken clouds.9 mph83%29.80 "HgN/A
9:20 PM61 °FPartly sunny.10 mph83%29.80 "HgN/A
8:50 PM61 °FPartly sunny.8 mph83%29.80 "HgN/A
8:20 PM61 °FBroken clouds.7 mph83%29.80 "HgN/A
7:50 PM61 °FScattered showers. Broken clouds.9 mph83%29.83 "HgN/A
7:20 PM63 °FScattered showers. Broken clouds.13 mph77%29.83 "HgN/A
6:50 PM63 °FScattered showers. Broken clouds.13 mph77%29.83 "HgN/A
6:20 PM61 °FScattered showers. Broken clouds.13 mph88%29.83 "HgN/A
5:50 PM61 °FSprinkles. Broken clouds.15 mph83%29.83 "HgN/A
5:20 PM61 °FScattered showers. Broken clouds.14 mph77%29.83 "HgN/A
4:50 PM63 °FBroken clouds.16 mph77%29.83 "HgN/A
4:20 PM63 °FBroken clouds.15 mph77%29.83 "HgN/A
3:50 PM63 °FBroken clouds.18 mph73%29.83 "HgN/A
3:20 PM63 °FBroken clouds.18 mph77%29.83 "HgN/A
2:50 PM61 °FBroken clouds.20 mph83%29.83 "HgN/A
2:20 PM61 °FBroken clouds.18 mph83%29.83 "HgN/A
1:50 PM61 °FScattered showers. Broken clouds.16 mph83%29.83 "HgN/A
1:20 PM59 °FScattered showers. Broken clouds.16 mph94%29.83 "HgN/A
12:50 PM59 °FSprinkles. Broken clouds.17 mph88%29.83 "HgN/A
12:20 PM61 °FSprinkles. Broken clouds.15 mph77%29.83 "HgN/A
11:50 AM61 °FBroken clouds.17 mph72%29.83 "HgN/A
10:50 AM61 °FBroken clouds.16 mph77%29.80 "HgN/A
10:20 AM61 °FBroken clouds.15 mph72%29.80 "HgN/A
9:50 AM61 °FBroken clouds.15 mph77%29.80 "HgN/A
9:20 AM59 °FBroken clouds.15 mph77%29.80 "HgN/A
8:50 AM61 °FBroken clouds.16 mph77%29.77 "HgN/A
8:20 AM57 °FScattered showers. Broken clouds.16 mph88%29.77 "HgN/A
7:50 AM57 °FLight rain. Broken clouds.18 mph88%29.77 "HgN/A
7:20 AM57 °FBroken clouds.16 mph94%29.77 "HgN/A
6:50 AM57 °FRain. Broken clouds.10 mph82%29.77 "Hg5 mi
6:20 AM59 °FBroken clouds.14 mph82%29.77 "HgN/A
5:50 AM59 °FPartly cloudy.17 mph82%29.77 "HgN/A
5:20 AM59 °FPartly cloudy.17 mph77%29.77 "HgN/A
4:50 AM59 °FMostly cloudy.18 mph82%29.77 "HgN/A
4:20 AM59 °FPassing clouds.17 mph77%29.77 "HgN/A
3:50 AM59 °FOvercast.18 mph82%29.77 "HgN/A
3:20 AM59 °FPassing clouds.17 mph88%29.77 "HgN/A
2:50 AM57 °FRain. Mostly cloudy.13 mph88%29.77 "Hg3 mi
2:20 AM57 °FPassing clouds.12 mph88%29.77 "HgN/A
1:50 AM57 °FPassing clouds.12 mph88%29.77 "HgN/A
1:20 AM57 °FDrizzle. Overcast.16 mph88%29.77 "Hg4 mi
12:50 AM57 °FOvercast.14 mph82%29.77 "HgN/A
12:20 AM57 °FPassing clouds.13 mph82%29.77 "HgN/A
Weather by CustomWeather, © 2016

See weather overviewHow to use our weather pages